User: anonymous
Location: Pulvis Stellarum Observatory
(41.6962°N, 71.4263°W)
Time: 06:35:52
(UTC-04:00)
Language:

Cosmos 1758 - Orbit

View from above orbital plane
View from above orbital plane
View from above satellite
View from above satellite

Ground track
Ground track

The orbit data is extracted from the following two-line orbital elements,

1 16791U 86046A   14107.97029745  .00005780  00000-0  45246-3 0    67
2 16791 082.4711 076.2763 0019706 059.0415 301.2743 15.00710320511991
Epoch (UTC): 17 April 2014 23:17:13
Eccentricity: 0.0019706
inclination: 82.4711°
perigee height: 551 km
apogee height: 578 km
right ascension of ascending node: 76.2763°
argument of perigee: 59.0415°
revolutions per day: 15.00710320
mean anomaly at epoch: 301.2743°
orbit number at epoch: 51199

The dashed part of the orbit path shows where the satellite is in the earth's shadow,  

DLR